Regional Weather Roundup
Issued by NWS

Home | Current Version | Previous Version | Text Only | Print | Product List | Glossary On
Versions: 1 2 3 4 5 6 7 8 9 10 11 12 13 14 15 16 17 18 19 20 21 22 23 24 25 26 27 28 29 30 31 32 33 34 35 36 37 38 39 40 41 42 43 44 45 46 47 48 49 50
511
ASUS44 KOUN 302310
RWROK

WEATHER ROUNDUP FOR OKLAHOMA
NATIONAL WEATHER SERVICE NORMAN OK
600 PM CDT MON MAY 30 2016

NOTE: "FAIR" INDICATES FEW OR NO CLOUDS BELOW 12,000 FEET WITH NO
      SIGNIFICANT WEATHER AND/OR OBSTRUCTIONS TO VISIBILITY.

OKZ001>007-009>012-014-015-017-310000-
NORTHWEST OKLAHOMA AND THE PANHANDLE

CITY           SKY/WX    TMP DP  RH WIND       PRES   REMARKS
GAGE           SUNNY     83  58  42 SE13      29.89F
GUYMON         SUNNY     81  56  42 SE16G23   29.87F
ENID/WOODRING  PTSUNNY   82  61  47 SE6       29.89F
$$

OKZ016-021>023-033>039-044-045-310000-
SOUTHWEST OKLAHOMA

CITY           SKY/WX    TMP DP  RH WIND       PRES   REMARKS
LAWTON/REGL    MOSUNNY   84  61  45 VRB3      29.89F
LAWTON/FT SILL MOSUNNY   82  64  54 SE7       29.88F
FREDERICK      SUNNY     85  61  44 S7        29.87F
CLINTON        SUNNY     84  57  39 S8        29.92F
HOBART         SUNNY     85  59  41 S10       29.90F
ALTUS AFB      SUNNY     84  57  39 SE8       29.88F HAZE
$$

OKZ018>020-024>031-310000-
CENTRAL OKLAHOMA

CITY           SKY/WX    TMP DP  RH WIND       PRES   REMARKS
OKLAHOMA CITY  MOSUNNY   81  65  58 SE5       29.91F
OKC/WILEY POST MOSUNNY   81  64  56 SE8       29.91F
OKC/TINKER AFB DRIZZLE   80  65  61 SE8       29.91F
STILLWATER     MOSUNNY   77  64  64 SE12      29.92F
GUTHRIE        MOSUNNY   80  65  59 SE6       29.91F
$$

OKZ008-013-054>072-310000-
NORTHEAST OKLAHOMA

CITY           SKY/WX    TMP DP  RH WIND       PRES   REMARKS
TULSA          CLOUDY    73  65  75 SE13      29.94F
TULSA/JONES    MOSUNNY   76  64  66 SE8       29.95F
PONCA CITY     MOSUNNY   79  63  57 SE14      29.92F
BARTLESVILLE   CLOUDY    74  61  63 SE13      29.97S
MUSKOGEE       CLOUDY    74  65  73 SE10      29.96F
$$

OKZ032-040>043-046>053-073>077-310000-
SOUTH CENTRAL/SOUTHEAST OKLAHOMA

CITY           SKY/WX    TMP DP  RH WIND       PRES   REMARKS
ARDMORE/DWNTWN SUNNY     81  64  57 S6        29.90F
MCALESTER      CLOUDY    77  67  71 E3        29.94F
$$





USA.gov is the U.S. government's official web portal to all federal, state and local government web resources and services.